ソニア彗星

C/2020 J1 ( SONEAR )

English version
Home page
Updated on March 27, 2023

---------------------------------------------------------------------

・ プロフィール

発見日 2020年5月1日
発見光度 17.0等
発見者 Southern Observatory for Near Earth Research (SONEAR) at Oliveira, Brazil

・ 写真集

・ 軌道要素

Epoch 2023 Feb. 25.0 TT = JDT 2460000.5
T 2021 Apr. 18.64714 TT                                 Rudenko
q   3.3538695            (2000.0)            P               Q
z  -0.0002346      Peri.  341.75141     -0.47247269     -0.76116945
 +/-0.0000002      Node   226.60190     -0.71314146     +0.03396314
e   1.0007867      Incl.  142.30471     -0.51787916     +0.64766316
>From 1532 observations 2020 May 1-2022 Nov. 27, mean residual 1".1.

・ 星図

・ 光度変化

        m1 = 2.5 + 5 logΔ + 15.0 log r(t - 90)

---------------------------------------------------------------------

軌道要素はM.P.E.C. 2022-W269に掲載されたものです。
星図はステラナビゲータ Ver.10 (アストロアーツ) で作成したものです。
光度グラフはComet for Windowsで作成したものです。

---------------------------------------------------------------------

Copyright(C) Seiichi Yoshida (comet@aerith.net). All rights reserved.